Location: Borgo
(42.3939°N, 9.2791°E)
Time: 17:49:18
(UTC+00:00)

ISS - Pass Details

Date: 24 January 2021
Orbit: 417 x 422 km, 51.6° (Epoch: 03 March)

Event Time Altitude Azimuth Distance (km) Brightness Sun altitude
Rises 17:42:03 0° 270° (W) 2,368 1.7 -13.9°
Reaches altitude 10° 17:44:24 10° 285° (WNW) 1,506 0.1 -14.4°
Maximum altitude 17:47:15 25° 342° (NNW) 908 -2.0 -14.9°
Enters shadow 17:48:50 18° 22° (NNE) 1,128 -1.9 -15.2°
